Showing default

KINEIS-2C, 62929

Orbit data source: Space-Track

KINEIS-2C, 62929 is a French payload satellite in SSO that was launched on Sat, 08 Feb 2025 UTC via an ELECTRON launch vehicle from the Rocket Lab Launch Complex (RLLC). Payload-class satellites include a variety of spacecraft equipped with specific instruments for various scientific and technological missions. These include communications satellites like Starlink; space stations such as the ISS; scientific satellites like the Hubble; Earth observation satellites from companies like Planet Labs, Umbra, and HawkEye 360; GPS; miniature CubeSats for education and research; and military/defense satellites.

Loading next visibility...
Identifier
62929, 2025-028B
Orbit
SSO
Last TLE update
11 hours ago
Origin
Manufacturer
KINEIS
Mission
Operational Commercial Communications
Bus & Motor
CUBESAT 16U, Unknown motor
Mass
28 kg wet, 28 kg dry
Launch date (UTC)
2025-02-08 (5 months ago)
Launch vehicle
ELECTRON
Launch site
Rocket Lab Launch Complex (RLLC)
Object type
Payload
Rocket body
Debris
Shape & HBR
Box + 2 Pan + 1 Ant, 1.6 m
Radar Cross Section
0.229 m², Medium (>0.1 m² and < 1m²)

Expand to show TLE details & history

TLE from 11 hours ago
0 KINEIS-2C
1 62929U 25028B   25183.69602856  .00001094  00000-0  18153-3 0  9991
2 62929  98.0048 237.2922 0002632  71.1251 289.0242 14.72157064 21182
Epoch: 2025-07-02T16:42Z
TLE epoch observation values (Epoch: 2025-07-02T16:42:16.867Z)
Latitude
0.00002°
Longitude
65.74849°
Altitude
656.595 km
Speed
7.529 km/s
True Right ascension
15h 49m 10s
True Declination
0° 00' 00"
Sunlit
Object was in full shadow at epoch
Visualization orbit readout
Latitude
-59.9704°
Longitude
-127.80828°
Altitude
679.155 km
Speed
7.515 km/s
Apparent Right ascension
03h 09m 34s
Apparent Declination
-50° 19' 24"
Sunlit
Object is in daylight
Visualization observer readout
Local Sidereal Time
15:20:08
Azimuth
170.766° S
Elevation
-79.429°
Doppler factor
1
Orbital elements
Apogee altitude
653.096 km
Perigee altitude
649.396 km
Semi-major axis
7,029.383 km
Eccentricity
0.00026
Inclination
98.0048°
RAAN
237.2922°
Arg. of periapsis
71.1251°
True anomaly
Unknown
Mean anomaly
289.0242°
Eccentric anomaly
Unknown
Mean motion
3.68271 °/min
Orbital period
97.75 mins
BSTAR
0.00018153
Loading maneuver chart data...
Loading SW <> Apogee altitude chart data...
Loading historical data...
Loading historical data...
Loading historical data...
Loading historical data...
Loading historical data...
Loading historical data...
Loading historical data...

KINEIS-2C Visibility forecast

Observer location: undefined°, undefined°

Span
Click to sort rows by Start time (UTC) header in descending order
Start Az.
Max El. time (UTC)
Max El. Az.
Max El.
End time (UTC)
End Az.
7 mins2025-07-03 04:14:56.289Z205.451° SW2025-07-03 04:17:56.289Z261.56° W28.597°2025-07-03 04:21:56.289Z327.027° NNW
7 mins2025-07-03 16:07:56.289Z31.676° NE2025-07-03 16:10:56.289Z113.515° SE37.562°2025-07-03 16:14:56.289Z176.085° S
7 mins2025-07-04 03:05:56.289Z135.839° SSE2025-07-04 03:08:56.289Z74.658° E33.904°2025-07-04 03:12:56.289Z2.905° NNE
|